Weather History for KONT - August, 2014

Change the Weather History Date:

Friday, August 22, 2014

  Actual Average Record
Temperature  
Mean Temperature 79 °F 79 °F  
Max Temperature 91 °F 94 °F 104 °F (1998)
Min Temperature 66 °F 65 °F 59 °F (2002)
Degree Days  
Heating Degree Days 0 0  
Month to date heating degree days 0 0  
Since 1 June heating degree days 0 5  
Since 1 July heating degree days 0 0  
Cooling Degree Days 14 14  
Month to date cooling degree days 322 308  
Year to date cooling degree days 1477 1092  
Since 1 June cooling degree days 1083 926  
Growing Degree Days 29 (Base 50)    
Moisture  
Dew Point 58 °F    
Average Humidity 55    
Maximum Humidity 81    
Minimum Humidity 29    
Precipitation  
Precipitation 0.00 in 0.00 in 0.00 in (2015)
Month to date precipitation 0.13 0.10  
Year to date precipitation 3.62 10.57  
Since 1 July precipitation 0.13 0.19  
Snow  
Snow 0.00 in - - ()
Month to date snowfall 0.0  
Year to date snowfall 0.0  
Since 1 July snowfall 0.0  
Snow Depth -    
Sea Level Pressure  
Sea Level Pressure 29.91 in    
Wind  
Wind Speed 6 mph (WSW)    
Max Wind Speed 18 mph    
Max Gust Speed 25 mph    
Visibility 10 miles    
Events      
T = Trace of Precipitation, MM = Missing Value Source: NWS Daily Summary

Daily Weather History Graph

Daily Weather History Graph

Search for Another Location

Airport or City:

Trip Planner

Search our weather history database for the weather conditions in past years. The results will help you decide how hot, cold, wet, or windy it might be!

Date:

Astronomy

Aug. 22, 2014 Rise Set
Actual Time 6:16 AM PDT 7:28 PM PDT
Civil Twilight 5:50 AM PDT 7:54 PM PDT
Nautical Twilight 5:19 AM PDT 8:25 PM PDT
Astronomical Twilight 4:47 AM PDT 8:57 PM PDT
Moon 3:47 AM PDT (8/22) 5:38 PM PDT (8/22)
Length of Visible Light 14h 03m
Length of Day
13h 11m
Waning Crescent, 7% of the Moon is Illuminated
Aug 22
Waning Crescent
Aug 25
New
Sep 2
First Quarter
Sep 8
Full
Sep 15
Last Quarter

Hourly Weather History & Observations

Time (PDT) Temp. Heat Index Dew Point Humidity Pressure Visibility Wind Dir Wind Speed Gust Speed Precip Events Conditions
12:53 AM 71.1 °F - 61.0 °F 70% 29.91 in 10.0 mi SW 3.5 mph - N/A   Clear
1:53 AM 69.8 °F - 60.8 °F 73% 29.96 in 10.0 mi Calm Calm - N/A   Clear
2:53 AM 71.1 °F - 61.0 °F 70% 29.91 in 10.0 mi SW 3.5 mph - N/A   Clear
3:53 AM 69.1 °F - 61.0 °F 75% 29.90 in 10.0 mi WSW 3.5 mph - N/A   Clear
4:53 AM 68.0 °F - 60.8 °F 78% 29.94 in 10.0 mi Calm Calm - N/A   Clear
5:53 AM 68.0 °F - 61.0 °F 78% 29.90 in 8.0 mi SW 4.6 mph - N/A   Partly Cloudy
6:53 AM 68.0 °F - 62.1 °F 81% 29.91 in 8.0 mi Calm Calm - N/A   Clear
7:53 AM 72.0 °F - 62.1 °F 71% 29.92 in 8.0 mi Calm Calm - N/A   Clear
8:53 AM 73.9 °F - 62.1 °F 66% 29.93 in 9.0 mi Variable 5.8 mph - N/A   Clear
9:53 AM 78.1 °F - 61.0 °F 56% 29.94 in 10.0 mi SW 5.8 mph - N/A   Clear
10:53 AM 81.0 °F 81.7 °F 61.0 °F 50% 29.94 in 10.0 mi Variable 4.6 mph - N/A   Partly Cloudy
11:53 AM 84.0 °F 83.8 °F 59.0 °F 43% 29.92 in 10.0 mi WSW 6.9 mph - N/A   Partly Cloudy
12:53 PM 87.1 °F 86.5 °F 59.0 °F 39% 29.91 in 10.0 mi West 10.4 mph - N/A   Partly Cloudy
1:53 PM 87.8 °F 87.1 °F 59.0 °F 38% 29.94 in 10.0 mi West 10.4 mph 20.7 mph N/A   Partly Cloudy
2:53 PM 90.0 °F 88.8 °F 57.9 °F 34% 29.87 in 10.0 mi West 15.0 mph 23.0 mph N/A   Partly Cloudy
3:53 PM 89.1 °F 86.9 °F 54.0 °F 30% 29.86 in 10.0 mi West 16.1 mph - N/A   Partly Cloudy
4:53 PM 89.1 °F - 52.0 °F 28% 29.86 in 10.0 mi WSW 13.8 mph - N/A   Partly Cloudy
5:53 PM 87.1 °F - 45.0 °F 23% 29.86 in 10.0 mi WSW 11.5 mph - N/A   Partly Cloudy
6:53 PM 82.9 °F - 39.9 °F 22% 29.87 in 10.0 mi West 16.1 mph - N/A   Partly Cloudy
7:53 PM 77.0 °F - 55.9 °F 48% 29.88 in 10.0 mi West 11.5 mph - N/A   Clear
8:53 PM 73.9 °F - 61.0 °F 64% 29.90 in 10.0 mi West 12.7 mph - N/A   Clear
9:53 PM 72.0 °F - 62.1 °F 71% 29.91 in 10.0 mi WSW 5.8 mph - N/A   Clear
10:53 PM 70.0 °F - 62.1 °F 76% 29.92 in 10.0 mi SW 4.6 mph - N/A   Clear
11:53 PM 69.1 °F - 61.0 °F 75% 29.92 in 10.0 mi SW 4.6 mph - N/A   Clear